This is the latest recevied weather packets stored in our database for station/object DC1MPP-9. If no packets are shown the sender has not sent any weather packets the latest 10 day(s).
| Time | Temp. | Humidity | Pressure | Rain* | Wind** | Luminosity | Snow |
|---|---|---|---|---|---|---|---|
| 1787998704 | 25.56° C | 58% | 961 hPa | - | - | - | - |
| 1787998462 | 25.56° C | 59% | 961 hPa | - | - | - | - |
| 1787998221 | 26.11° C | 53% | 961 hPa | - | - | - | - |
| 1787997980 | 25.56° C | 52% | 961 hPa | - | - | - | - |
| 1787997739 | 25.56° C | 59% | 961 hPa | - | - | - | - |
| 1787997498 | 26.11° C | 56% | 961 hPa | - | - | - | - |
| 1787997016 | 26.11° C | 59% | 961 hPa | - | - | - | - |
| 1787996775 | 25.56° C | 60% | 961 hPa | - | - | - | - |
| 1787996534 | 26.11° C | 56% | 961 hPa | - | - | - | - |
| 1787996293 | 26.11° C | 62% | 961 hPa | - | - | - | - |
| 1787996052 | 26.11° C | 58% | 961 hPa | - | - | - | - |
| 1787995811 | 25.56° C | 60% | 961 hPa | - | - | - | - |
| 1787995329 | 25° C | 60% | 961 hPa | - | - | - | - |
| 1787995088 | 25° C | 65% | 961 hPa | - | - | - | - |
| 1787994605 | 24.44° C | 63% | 961 hPa | - | - | - | - |
| 1787994364 | 24.44° C | 63% | 961 hPa | - | - | - | - |
| 1787994123 | 24.44° C | 65% | 961 hPa | - | - | - | - |
| 1787993882 | 24.44° C | 73% | 961 hPa | - | - | - | - |
| 1787993641 | 23.89° C | 61% | 961 hPa | - | - | - | - |
| 1787993400 | 23.89° C | 70% | 961 hPa | - | - | - | - |
| 1787993159 | 23.33° C | 69% | 961 hPa | - | - | - | - |
| 1787992918 | 23.33° C | 75% | 961 hPa | - | - | - | - |
| 1787992677 | 23.89° C | 79% | 961 hPa | - | - | - | - |
| 1787992436 | 23.89° C | 83% | 961 hPa | - | - | - | - |
| 1787992195 | 23.33° C | 78% | 961 hPa | - | - | - | - |
* Rain since midnight (hover to see other rain measurements)
** Current wind speed in m/s (hover to see current wind gust speed)